Location: *
(34.6903°N, 135.5184°E)
Time: 14:00:42
(UTC+00:00)

BREEZE-M DEB (TANK) - Pass Details

Date: 22 September 2019
Orbit: 327 x 16738 km, 49.5° (Epoch: 15 October)

Event Time Altitude Azimuth Distance (km) Brightness Sun altitude
Exits shadow 20:03:54 - 239° (WSW) 2,735 5.8 -9.5°
Reaches altitude 10° 20:04:24 10° 239° (WSW) 2,485 5.6 -9.4°
Maximum altitude 20:08:52 57° 319° (NW) 520 2.5 -8.5°
Drops below altitude 10° 20:11:10 10° 41° (NE) 1,286 5.5 -8.0°
Sets 20:12:43 0° 47° (NE) 2,086 6.7 -7.7°
